Flag Weather past 2 weeks in Olten, Solothurn, Switzerland

Now
43 °F

Quite cool.


Feels Like: 43 °F
Forecast: 41 / 54 °F
Wind: 2 mph from Southwest

Location: Wynau

Current Time: Nov 24, 2014 at 1:16:08 AM

Latest Report: Nov 24, 2014 at 12:00 AM


Visibility: N/A

Pressure: 30.23 "Hg

Humidity: 98%

Dew point: 43 °F

Location of OltenLocation

Historic Weather in Olten — Graph

°F

Olten temperature yesterday

Maximum temperature yesterday: 43 °F (at 5:00 PM)
Minimum temperature yesterday: 38 °F (at 7:00 AM)
Average temperature yesterday: 41 °F

Past Weeks' High & Low Weather Summary

 TemperatureHumidityPressure
High52 °F (Nov 16, 3:00 PM)100% (Nov 9, 12:00 AM)30.32 "Hg (Nov 9, 12:00 AM)
Low33 °F (Nov 20, 2:00 AM)70% (Nov 19, 2:00 PM)29.59 "Hg (Nov 15, 6:00 PM)
Average43 °F95%29.93 "Hg
* Reported Midnight between Nov 8 and Nov 9 — Midnight between Nov 23 and Nov 24, Olten, Weather by CustomWeather, © 2014

Note: Actual official high and low records may vary slightly from our data, if they occured in-between our weather recording intervals... More about our weather records

Advertising

Olten weather history for previous 24 hours

 ConditionsComfort  
Time TempWeatherWind HumidityBarometerVisibility
12:00 AM
Nov 24
43 °FQuite cool.2 mph98%30.23 "HgN/A
11:00 PM
Nov 23
43 °FQuite cool.1 mph100%30.22 "HgN/A
10:00 PM43 °FQuite cool.1 mph98%30.22 "HgN/A
9:00 PM43 °FQuite cool.1 mph99%30.22 "HgN/A
8:00 PM42 °FQuite cool.1 mph100%30.22 "HgN/A
7:00 PM42 °FQuite cool.No wind98%30.21 "HgN/A
6:00 PM43 °FQuite cool.2 mph97%30.21 "HgN/A
5:00 PM43 °FQuite cool.1 mph97%30.20 "HgN/A
4:00 PM43 °FQuite cool.1 mph97%30.21 "HgN/A
3:00 PM43 °FQuite cool.1 mph94%30.22 "HgN/A
2:00 PM42 °FQuite cool.1 mph95%30.22 "HgN/A
1:00 PM41 °FQuite cool.2 mph99%30.25 "HgN/A
12:00 PM41 °FQuite cool.2 mph93%30.27 "HgN/A
11:00 AM39 °FChilly.3 mph97%30.29 "HgN/A
10:00 AM39 °FChilly.2 mph97%30.29 "HgN/A
9:00 AM38 °FChilly.2 mph100%30.28 "HgN/A
8:00 AM38 °FChilly.1 mph100%30.26 "HgN/A
7:00 AM38 °FChilly.No wind100%30.26 "HgN/A
6:00 AM39 °FChilly.1 mph100%30.25 "HgN/A
5:00 AM39 °FChilly.2 mph100%30.25 "HgN/A
4:00 AM39 °FChilly.3 mph100%30.24 "HgN/A
3:00 AM40 °FChilly.3 mph100%30.25 "HgN/A
2:00 AM41 °FQuite cool.2 mph94%30.24 "HgN/A
1:00 AM41 °FQuite cool.2 mph99%30.24 "HgN/A
Weather by CustomWeather, © 2014

See weather overviewHow to use our weather pages